W2PJ Weather Reports


time (UTC)temp
C
wind
direction
speed
KPH
gust
KPH
rain 1hr
cm
rain 24hr
cm
rain mn
cm
humidity
%
barometer
mb
20260504050511 11 266 0.0 3.2 0.00 0.00 0.00 54 1009.1
20260504050010 11 176 0.0 3.2 0.00 0.00 0.00 54 1009.2
20260504045509 11 248 0.0 3.2 0.00 0.00 0.00 55 1009.2
20260504045014 10 264 0.0 1.6 0.00 0.00 0.00 56 1009.2
20260504044511 10 242 0.0 1.6 0.00 0.00 0.00 56 1009.2
20260504044007 10 257 0.0 1.6 0.00 0.00 0.00 57 1009.3
20260504043507 10 257 0.0 1.6 0.00 0.00 0.00 57 1009.2
20260504043010 10 247 0.0 0.0 0.00 0.00 0.00 58 1009.3
20260504042506 10 262 0.0 1.6 0.00 0.00 0.00 58 1009.3
20260504042004 10 247 0.0 1.6 0.00 0.00 0.00 59 1009.3
20260504041504 10 247 0.0 0.0 0.00 0.00 0.00 60 1009.3
20260504041003 10 264 0.0 0.0 0.00 0.00 0.00 61 1009.4
20260504040502 10 253 0.0 0.0 0.00 0.00 0.00 61 1009.4
20260504040001 10 251 0.0 0.0 0.00 0.00 0.00 62 1009.6
20260504035502 10 240 0.0 0.0 0.00 0.00 0.00 62 1009.6
20260504035100 10 227 0.0 0.0 0.00 0.00 0.00 63 1009.6
20260504034600 9 217 0.0 0.0 0.00 0.00 0.00 64 1009.6
20260504034501 9 238 0.0 0.0 0.00 0.00 0.00 64 1009.7
20260504034100 9 169 0.0 1.6 0.00 0.00 0.00 64 1009.7
20260504033600 9 264 0.0 1.6 0.00 0.00 0.00 65 1009.8
20260504033123 9 234 0.0 0.0 0.00 0.00 0.00 66 1009.7
20260504032600 9 227 0.0 0.0 0.00 0.00 0.00 66 1009.7
20260504032059 9 223 0.0 0.0 0.00 0.00 0.00 67 1009.7
20260504031600 8 152 0.0 0.0 0.00 0.00 0.00 68 1009.8
20260504031058 8 172 0.0 0.0 0.00 0.00 0.00 69 1009.8
20260504030600 8 159 0.0 1.6 0.00 0.00 0.00 70 1009.9
20260504030117 8 214 0.0 1.6 0.00 0.00 0.00 70 1009.9
20260504025558 8 167 0.0 1.6 0.00 0.00 0.00 70 1010.0
20260504025057 8 240 0.0 0.0 0.00 0.00 0.00 71 1010.0
20260504024559 8 249 0.0 0.0 0.00 0.00 0.00 71 1010.1
20260504024057 8 266 0.0 0.0 0.00 0.00 0.00 71 1010.3
20260504023558 8 231 0.0 14.5 0.00 0.00 0.00 71 1010.4
20260504023057 8 258 0.0 14.5 0.00 0.00 0.00 72 1010.4
20260504022601 8 226 0.0 1.6 0.00 0.00 0.00 74 1010.5
20260504022100 8 318 0.0 1.6 0.00 0.00 0.00 73 1010.5
20260504021557 8 292 0.0 12.9 0.00 0.00 0.00 73 1010.5
20260504021056 9 283 1.6 17.7 0.00 0.00 0.00 72 1010.7
20260504020559 9 300 6.4 22.5 0.00 0.00 0.00 69 1010.9
20260504020106 10 291 4.8 29.0 0.00 0.00 0.00 65 1010.9
20260504015556 10 290 4.8 32.2 0.00 0.00 0.00 62 1010.9
20260504015055 10 268 12.9 32.2 0.00 0.00 0.00 61 1010.8
20260504014604 10 300 0.0 14.5 0.00 0.00 0.00 60 1010.6
20260504014054 10 309 1.6 14.5 0.00 0.00 0.00 58 1010.6
20260504013554 10 302 0.0 19.3 0.00 0.00 0.00 58 1010.5
20260504013056 11 238 4.8 25.7 0.00 0.00 0.00 57 1010.5
20260504012555 11 273 3.2 32.2 0.00 0.00 0.00 57 1010.4
20260504012052 11 263 12.9 32.2 0.00 0.00 0.00 56 1010.5
20260504011553 11 286 8.0 33.8 0.00 0.00 0.00 54 1010.4
20260504011052 11 273 11.3 33.8 0.00 0.00 0.00 54 1010.4
20260504010552 11 247 6.4 25.7 0.00 0.00 0.00 55 1010.4
20260504010058 10 245 1.6 20.9 0.00 0.00 0.00 56 1010.3
20260504005554 10 273 0.0 19.3 0.00 0.00 0.00 57 1010.1
20260504005052 10 217 4.8 19.3 0.00 0.00 0.00 57 1010.1
20260504004552 10 234 0.0 1.6 0.00 0.00 0.00 58 1010.0
20260504004051 10 277 0.0 1.6 0.00 0.00 0.00 58 1010.0
20260504003551 10 230 0.0 0.0 0.00 0.00 0.00 58 1010.0
20260504003051 10 164 0.0 0.0 0.00 0.00 0.00 58 1009.9
20260504002551 10 251 0.0 0.0 0.00 0.00 0.00 58 1009.9
20260504002051 10 226 0.0 0.0 0.00 0.00 0.00 58 1009.9
20260504001557 10 240 0.0 1.6 0.00 0.00 0.00 58 1009.8
20260504001051 10 248 0.0 9.7 0.00 0.00 0.00 57 1009.8
20260504000551 10 166 0.0 9.7 0.00 0.00 0.00 57 1009.8
20260504000057 10 197 0.0 11.3 0.00 0.00 0.00 56 1009.8
20260503235550 10 256 0.0 20.9 0.00 0.00 0.00 56 1009.9
20260503235049 10 255 8.0 20.9 0.00 0.00 0.00 55 1010.0
20260503234550 10 273 1.6 27.4 0.00 0.00 0.00 55 1010.1
20260503234049 10 249 3.2 25.7 0.00 0.00 0.00 54 1010.3
20260503233549 10 306 9.7 32.2 0.00 0.00 0.00 52 1010.3
20260503233051 10 325 0.0 32.2 0.00 0.00 0.00 52 1010.2
20260503232552 10 247 8.0 20.9 0.00 0.00 0.00 51 1010.1
20260503232048 10 301 3.2 19.3 0.00 0.00 0.00 51 1010.0
20260503231547 10 217 0.0 0.0 0.00 0.00 0.00 51 1010.0
20260503231047 10 258 0.0 1.6 0.00 0.00 0.00 50 1009.9
20260503230548 10 287 0.0 1.6 0.00 0.00 0.00 50 1009.9
20260503230104 10 242 0.0 3.2 0.00 0.00 0.00 50 1009.9
20260503225547 10 283 0.0 6.4 0.00 0.00 0.00 49 1009.8
20260503225047 11 249 0.0 6.4 0.00 0.00 0.00 49 1009.7
20260503224546 11 199 0.0 4.8 0.00 0.00 0.00 50 1009.7
20260503224048 11 273 0.0 4.8 0.00 0.00 0.00 49 1009.7
20260503223547 11 254 0.0 3.2 0.00 0.00 0.00 48 1009.7
20260503223101 11 240 0.0 1.6 0.00 0.00 0.00 50 1009.6
20260503222546 11 315 0.0 11.3 0.00 0.00 0.00 49 1009.6
20260503222043 11 293 0.0 16.1 0.00 0.00 0.00 49 1009.7
20260503221549 11 227 1.6 17.7 0.00 0.00 0.00 49 1009.9
20260503221045 10 271 3.2 16.1 0.00 0.00 0.00 50 1009.9
20260503220542 10 247 0.0 16.1 0.00 0.00 0.00 51 1010.0
20260503220042 10 276 1.6 16.1 0.00 0.00 0.00 51 1010.0
20260503215542 10 249 1.6 16.1 0.00 0.00 0.00 51 1010.0
20260503215041 10 259 3.2 20.9 0.00 0.00 0.00 51 1009.9
20260503214553 10 275 9.7 22.5 0.00 0.00 0.00 51 1009.9
20260503214041 10 271 3.2 17.7 0.00 0.00 0.00 52 1009.9
20260503213541 10 285 3.2 12.9 0.00 0.00 0.00 51 1009.9
20260503213045 10 248 1.6 25.7 0.00 0.00 0.00 52 1009.9
20260503212541 10 275 9.7 24.1 0.00 0.00 0.00 51 1009.9
20260503212040 10 261 6.4 20.9 0.00 0.00 0.00 51 1009.9
20260503211541 10 234 4.8 22.5 0.00 0.00 0.00 51 1009.9
20260503211039 10 228 3.2 20.9 0.00 0.00 0.00 52 1009.8
20260503210539 10 276 1.6 14.5 0.00 0.00 0.00 51 1010.0
20260503210038 10 337 3.2 16.1 0.00 0.00 0.00 52 1010.0
20260503205537 10 299 1.6 16.1 0.00 0.00 0.00 51 1010.1
20260503205037 10 258 0.0 20.9 0.00 0.00 0.00 52 1010.0
20260503204543 10 280 6.4 17.7 0.00 0.00 0.00 50 1010.0
20260503204036 10 293 0.0 16.1 0.00 0.00 0.00 52 1010.0
20260503203535 10 279 4.8 16.1 0.00 0.00 0.00 51 1010.1
20260503203035 10 277 6.4 16.1 0.00 0.00 0.00 51 1010.1
20260503202534 10 272 3.2 16.1 0.00 0.00 0.00 51 1010.3
20260503202036 10 290 1.6 16.1 0.00 0.00 0.00 52 1010.2
20260503201534 10 249 3.2 24.1 0.00 0.00 0.00 50 1010.3
20260503201032 10 278 11.3 24.1 0.00 0.00 0.00 50 1010.4
20260503200532 10 245 3.2 24.1 0.00 0.00 0.00 49 1010.4
20260503200032 10 305 3.2 24.1 0.00 0.00 0.00 51 1010.4
20260503195531 10 227 12.9 22.5 0.00 0.00 0.00 49 1010.5
20260503195032 10 251 1.6 17.7 0.00 0.00 0.00 50 1010.5
20260503194537 10 272 0.0 20.9 0.00 0.00 0.00 49 1010.6
20260503194030 10 293 6.4 24.1 0.00 0.00 0.00 48 1010.6
20260503193530 10 266 8.0 27.4 0.00 0.00 0.00 47 1010.6
20260503193031 10 281 6.4 30.6 0.00 0.00 0.00 47 1010.7
20260503192529 10 307 0.0 37.0 0.00 0.00 0.00 46 1010.6
20260503192032 10 254 19.3 37.0 0.00 0.00 0.00 45 1010.6
20260503191529 10 281 3.2 25.7 0.00 0.00 0.00 46 1010.7
20260503191031 10 264 9.7 25.7 0.00 0.00 0.00 44 1010.7
20260503190528 10 266 1.6 30.6 0.00 0.00 0.00 44 1010.6
20260503190039 10 299 11.3 30.6 0.00 0.00 0.00 43 1010.8
20260503185526 10 289 4.8 25.7 0.00 0.00 0.00 44 1011.0
20260503185029 10 219 6.4 24.1 0.00 0.00 0.00 44 1011.0
20260503184524 10 282 1.6 25.7 0.00 0.00 0.00 45 1011.0
20260503184024 10 279 8.0 24.1 0.00 0.00 0.00 43 1011.1
20260503183522 10 299 11.3 25.7 0.00 0.00 0.00 43 1011.2
20260503183022 10 263 6.4 25.7 0.00 0.00 0.00 42 1011.2
20260503182520 10 247 0.0 17.7 0.00 0.00 0.00 45 1011.3
20260503182019 10 261 1.6 19.3 0.00 0.00 0.00 43 1011.4
20260503181537 10 120 1.6 19.3 0.00 0.00 0.00 45 1011.5
20260503181018 10 275 0.0 17.7 0.00 0.00 0.00 44 1011.6
20260503180516 9 301 1.6 19.3 0.00 0.00 0.00 43 1011.7
20260503180024 9 245 3.2 29.0 0.00 0.00 0.00 42 1011.7
20260503175518 9 321 8.0 29.0 0.00 0.00 0.00 43 1011.8
20260503175013 9 259 0.0 19.3 0.00 0.00 0.00 43 1011.8
20260503174513 8 290 3.2 17.7 0.00 0.00 0.00 43 1011.9
20260503174015 8 329 0.0 6.4 0.00 0.00 0.00 44 1011.9
20260503173512 8 252 0.0 19.3 0.00 0.00 0.00 45 1011.9
20260503173011 8 254 0.0 17.7 0.00 0.00 0.00 44 1011.9
20260503172510 8 314 1.6 17.7 0.00 0.00 0.00 42 1012.1
20260503172010 8 275 0.0 11.3 0.00 0.00 0.00 43 1012.1
20260503171520 8 319 1.6 19.3 0.00 0.00 0.00 42 1012.1
20260503171007 8 309 1.6 22.5 0.00 0.00 0.00 43 1012.2
20260503170508 8 267 3.2 22.5 0.00 0.00 0.00 43 1012.3
20260503150546 6 294 0.0 11.3 0.00 0.00 0.00 54 1013.5
20260503131029 4 325 0.0 8.0 0.00 0.00 0.00 73 1013.9
20260503130532 4 285 0.0 8.0 0.00 0.00 0.00 75 1014.0
20260503110519 2 255 0.0 0.0 0.00 0.00 0.00 87 1013.4
20260503090507 2 235 0.0 0.0 0.00 0.00 0.00 85 1013.1
20260503081504 2 286 0.0 0.0 0.00 0.00 0.00 86 1013.2
20260503081006 2 307 0.0 0.0 0.00 0.00 0.00 86 1013.2
20260503080503 2 271 0.0 0.0 0.00 0.00 0.00 86 1013.2
20260503072502 2 280 0.0 0.0 0.00 0.00 0.00 86 1013.2